When you browse on this site, cookies collect data to enhance your experience and personalize the content and advertising you see.
Visit our Privacy Policy to learn more. By continuing to use the site, you agree to this use of cookies and data.
  • In Czech Republic
  • List of Countries
  • For 7 days
  • Water Temperature
  • Satellite Maps
  • Weather Map
  • Weather Widgets
  • user-avatar
    Login

    Hourly Weather Jaunde

    Today, 21 June, Friday

    Time Temperature Precipitation Wind Pressure Humidity
    00:00 +22°C° 0.2 mm 1 mps 700 mmHg 97%
    01:00 +22°C° 0.2 mm 1 mps 700 mmHg 96%
    02:00 +22°C° 0.2 mm 1 mps 700 mmHg 97%
    03:00 +21°C° 0.2 mm 1 mps 699 mmHg 98%
    04:00 +21°C° 0.2 mm 1 mps 699 mmHg 99%
    05:00 +21°C° 0.1 mm 1 mps 699 mmHg 98%
    06:00 +21°C° 0.1 mm 1 mps 700 mmHg 98%
    07:00 +21°C° 0.1 mm 1 mps 700 mmHg 98%
    08:00 +22°C° 0 mm 1 mps 700 mmHg 94%
    09:00 +23°C° 0 mm 1 mps 701 mmHg 89%
    10:00 +24°C° 0 mm 1 mps 701 mmHg 85%
    11:00 +26°C° 0 mm 1 mps 700 mmHg 77%
    12:00 +28°C° 0 mm 1 mps 700 mmHg 70%
    13:00 +29°C° 0 mm 2 mps 700 mmHg 62%
    14:00 +29°C° 0.4 mm 2 mps 699 mmHg 65%
    15:00 +29°C° 0.4 mm 2 mps 698 mmHg 67%
    16:00 +29°C° 0.4 mm 2 mps 698 mmHg 70%
    17:00 +27°C° 1 mm 2 mps 698 mmHg 78%
    18:00 +25°C° 1 mm 2 mps 698 mmHg 86%
    19:00 +24°C° 1 mm 2 mps 698 mmHg 94%
    20:00 +23°C° 1.6 mm 2 mps 699 mmHg 96%
    21:00 +23°C° 1.6 mm 2 mps 699 mmHg 97%
    22:00 +21°C° 1.6 mm 2 mps 700 mmHg 98%
    23:00 +21°C° 0.2 mm 2 mps 700 mmHg 98%

    Tomorrow, 22 June, Saturday

    Time Temperature Precipitation Wind Pressure Humidity
    00:00 +21°C° 0.2 mm 2 mps 700 mmHg 98%
    01:00 +21°C° 0.2 mm 2 mps 700 mmHg 98%
    02:00 +21°C° 0.3 mm 2 mps 699 mmHg 98%
    03:00 +21°C° 0.3 mm 2 mps 699 mmHg 98%
    04:00 +21°C° 0.3 mm 2 mps 699 mmHg 98%
    05:00 +22°C° 0 mm 1 mps 699 mmHg 98%
    06:00 +22°C° 0 mm 1 mps 699 mmHg 98%
    07:00 +22°C° 0 mm 1 mps 700 mmHg 98%
    08:00 +23°C° 0 mm 1 mps 700 mmHg 94%
    09:00 +24°C° 0 mm 2 mps 700 mmHg 90%
    10:00 +24°C° 0 mm 2 mps 701 mmHg 86%
    11:00 +26°C° 0.1 mm 2 mps 701 mmHg 80%
    12:00 +27°C° 0.1 mm 2 mps 700 mmHg 74%
    13:00 +29°C° 0.1 mm 2 mps 700 mmHg 68%
    14:00 +28°C° 0.9 mm 2 mps 699 mmHg 71%
    15:00 +28°C° 0.9 mm 2 mps 698 mmHg 75%
    16:00 +28°C° 0.9 mm 2 mps 698 mmHg 78%
    17:00 +26°C° 0.5 mm 2 mps 698 mmHg 83%
    18:00 +25°C° 0.5 mm 2 mps 698 mmHg 88%
    19:00 +23°C° 0.5 mm 2 mps 698 mmHg 93%
    20:00 +23°C° 0.3 mm 2 mps 699 mmHg 94%
    21:00 +22°C° 0.3 mm 1 mps 699 mmHg 95%
    22:00 +22°C° 0.3 mm 1 mps 700 mmHg 96%
    23:00 +22°C° 0 mm 1 mps 699 mmHg 97%

    Day after tomorrow, 23 June, Sunday

    Time Temperature Precipitation Wind Pressure Humidity
    00:00 +22°C° 0 mm 1 mps 699 mmHg 97%
    01:00 +21°C° 0 mm 1 mps 699 mmHg 98%
    02:00 +21°C° 0 mm 1 mps 699 mmHg 97%
    03:00 +21°C° 0 mm 1 mps 698 mmHg 96%
    04:00 +21°C° 0 mm 1 mps 698 mmHg 96%
    05:00 +22°C° 0 mm 1 mps 698 mmHg 95%
    06:00 +22°C° 0 mm 1 mps 699 mmHg 94%
    07:00 +22°C° 0 mm 1 mps 699 mmHg 93%
    08:00 +23°C° 0 mm 1 mps 700 mmHg 87%
    09:00 +24°C° 0 mm 2 mps 700 mmHg 82%
    10:00 +26°C° 0 mm 2 mps 701 mmHg 76%
    11:00 +27°C° 0.1 mm 2 mps 700 mmHg 72%
    12:00 +28°C° 0.1 mm 2 mps 700 mmHg 69%
    13:00 +29°C° 0.1 mm 2 mps 699 mmHg 65%
    14:00 +29°C° 0.2 mm 2 mps 698 mmHg 66%
    15:00 +29°C° 0.2 mm 2 mps 698 mmHg 66%
    16:00 +28°C° 0.2 mm 2 mps 697 mmHg 67%
    17:00 +27°C° 0.5 mm 2 mps 697 mmHg 76%
    18:00 +25°C° 0.5 mm 2 mps 698 mmHg 85%
    19:00 +23°C° 0.5 mm 2 mps 698 mmHg 94%
    20:00 +23°C° 0.3 mm 2 mps 698 mmHg 94%
    21:00 +21°C° 0.3 mm 2 mps 699 mmHg 95%
    22:00 +22°C° 0.3 mm 1 mps 699 mmHg 96%
    23:00 +22°C° 0.9 mm 1 mps 699 mmHg 97%

    24 June, Monday

    Time Temperature Precipitation Wind Pressure Humidity
    00:00 +21°C° 0.9 mm 1 mps 699 mmHg 98%
    01:00 +21°C° 0.9 mm 1 mps 699 mmHg 99%
    02:00 +21°C° 0 mm 1 mps 698 mmHg 99%
    03:00 +21°C° 0 mm 1 mps 698 mmHg 98%
    04:00 +21°C° 0 mm 1 mps 698 mmHg 98%
    05:00 +21°C° 0 mm 1 mps 698 mmHg 98%
    06:00 +21°C° 0 mm 1 mps 698 mmHg 98%
    07:00 +21°C° 0 mm 1 mps 699 mmHg 98%
    08:00 +22°C° 0 mm 1 mps 699 mmHg 95%
    09:00 +23°C° 0 mm 1 mps 699 mmHg 93%
    10:00 +23°C° 0 mm 1 mps 700 mmHg 91%
    11:00 +25°C° 0.1 mm 1 mps 699 mmHg 84%
    12:00 +26°C° 0.1 mm 1 mps 699 mmHg 76%
    13:00 +27°C° 0.1 mm 2 mps 698 mmHg 69%
    14:00 +27°C° 0.7 mm 2 mps 698 mmHg 73%
    15:00 +27°C° 0.7 mm 2 mps 697 mmHg 77%
    16:00 +27°C° 0.7 mm 2 mps 697 mmHg 80%
    17:00 +25°C° 0.6 mm 2 mps 697 mmHg 86%
    18:00 +24°C° 0.6 mm 2 mps 697 mmHg 91%
    19:00 +21°C° 0.6 mm 2 mps 697 mmHg 96%
    20:00 +21°C° 0.3 mm 2 mps 698 mmHg 97%
    21:00 +21°C° 0.3 mm 2 mps 698 mmHg 97%
    22:00 +21°C° 0.3 mm 2 mps 699 mmHg 97%
    23:00 +21°C° 0.2 mm 1 mps 698 mmHg 97%

    25 June, Tuesday

    Time Temperature Precipitation Wind Pressure Humidity
    00:00 +21°C° 0.2 mm 1 mps 698 mmHg 98%
    01:00 +21°C° 0.2 mm 1 mps 698 mmHg 98%
    02:00 +21°C° 0 mm 1 mps 698 mmHg 98%
    03:00 +21°C° 0 mm 1 mps 698 mmHg 97%
    04:00 +21°C° 0 mm 1 mps 697 mmHg 97%
    05:00 +21°C° 0 mm 1 mps 698 mmHg 97%
    06:00 +21°C° 0 mm 1 mps 698 mmHg 97%
    07:00 +21°C° 0 mm 1 mps 698 mmHg 97%
    08:00 +21°C° 0 mm 1 mps 699 mmHg 94%
    09:00 +22°C° 0 mm 1 mps 699 mmHg 92%
    10:00 +23°C° 0 mm 1 mps 700 mmHg 90%
    11:00 +24°C° 0.1 mm 1 mps 699 mmHg 85%
    12:00 +25°C° 0.1 mm 1 mps 699 mmHg 80%
    13:00 +26°C° 0.1 mm 1 mps 698 mmHg 75%
    14:00 +26°C° 0.5 mm 1 mps 698 mmHg 76%
    15:00 +26°C° 0.5 mm 1 mps 698 mmHg 78%
    16:00 +26°C° 0.5 mm 1 mps 697 mmHg 80%
    17:00 +25°C° 0.6 mm 1 mps 697 mmHg 85%
    18:00 +24°C° 0.6 mm 2 mps 698 mmHg 91%
    19:00 +21°C° 0.6 mm 2 mps 698 mmHg 96%
    20:00 +21°C° 0.2 mm 2 mps 698 mmHg 97%
    21:00 +21°C° 0.2 mm 2 mps 699 mmHg 97%
    22:00 +20°C° 0.2 mm 2 mps 699 mmHg 97%
    23:00 +20°C° 0 mm 2 mps 699 mmHg 96%

    26 June, Wednesday

    Time Temperature Precipitation Wind Pressure Humidity
    00:00 +20°C° 0 mm 2 mps 699 mmHg 96%
    01:00 +21°C° 0 mm 1 mps 699 mmHg 96%
    02:00 +21°C° 0 mm 1 mps 698 mmHg 96%
    03:00 +20°C° 0 mm 1 mps 698 mmHg 96%
    04:00 +20°C° 0 mm 1 mps 698 mmHg 97%
    05:00 +20°C° 0 mm 1 mps 698 mmHg 96%
    06:00 +21°C° 0 mm 1 mps 699 mmHg 96%
    07:00 +21°C° 0 mm 1 mps 699 mmHg 96%
    08:00 +21°C° 0 mm 1 mps 699 mmHg 93%
    09:00 +22°C° 0 mm 1 mps 700 mmHg 91%
    10:00 +22°C° 0 mm 1 mps 700 mmHg 88%
    11:00 +23°C° 0 mm 1 mps 700 mmHg 85%
    12:00 +24°C° 0 mm 1 mps 699 mmHg 81%
    13:00 +24°C° 0 mm 1 mps 699 mmHg 78%
    14:00 +24°C° 0 mm 1 mps 698 mmHg 78%
    15:00 +24°C° 0 mm 1 mps 698 mmHg 78%
    16:00 +25°C° 0 mm 1 mps 698 mmHg 78%
    17:00 +24°C° 0 mm 1 mps 698 mmHg 83%
    18:00 +23°C° 0 mm 1 mps 698 mmHg 88%
    19:00 +22°C° 0 mm 1 mps 698 mmHg 93%
    20:00 +22°C° 0 mm 1 mps 698 mmHg 93%
    21:00 +22°C° 0 mm 1 mps 699 mmHg 94%
    22:00 +21°C° 0 mm 1 mps 699 mmHg 95%
    23:00 +21°C° 0 mm 1 mps 699 mmHg 95%
    Show more